| time (UTC) | temp F | wind direction | speed knots | gust knots | rain 1hr in | rain 24hr in | rain mn in | humidity % | barometer mb |
| 20260504050025 | 42 | 305 | 6.1 | 9.6 | 0.00 | 0.00 | 0.00 | 82 | 1015.3 |
| 20260504045030 | 42 | 303 | 7.0 | 12.2 | 0.00 | 0.00 | 0.00 | 81 | 1015.3 |
| 20260504044018 | 42 | 309 | 5.2 | 12.2 | 0.00 | 0.00 | 0.00 | 82 | 1015.2 |
| 20260504043023 | 41 | 311 | 5.2 | 9.6 | 0.00 | 0.00 | 0.00 | 83 | 1015.2 |
| 20260504042028 | 40 | 311 | 4.3 | 8.7 | 0.00 | 0.00 | 0.00 | 83 | 1014.9 |
| 20260504041016 | 39 | 308 | 4.3 | 7.8 | 0.00 | 0.00 | 0.00 | 85 | 1015.0 |
| 20260504040021 | 38 | 301 | 4.3 | 7.8 | 0.00 | 0.00 | 0.00 | 85 | 1014.9 |
| 20260504035026 | 38 | 302 | 3.5 | 8.7 | 0.00 | 0.00 | 0.00 | 84 | 1015.0 |
| 20260504034031 | 38 | 298 | 3.5 | 7.0 | 0.00 | 0.00 | 0.00 | 84 | 1014.9 |
| 20260504033019 | 38 | 300 | 2.6 | 5.2 | 0.00 | 0.00 | 0.00 | 84 | 1015.0 |
| 20260504032024 | 38 | 300 | 3.5 | 7.0 | 0.00 | 0.00 | 0.00 | 84 | 1014.8 |
| 20260504031029 | 38 | 299 | 3.5 | 6.1 | 0.00 | 0.00 | 0.00 | 83 | 1014.9 |
| 20260504030017 | 38 | 302 | 3.5 | 7.0 | 0.00 | 0.00 | 0.00 | 83 | 1014.9 |
| 20260504025022 | 38 | 297 | 3.5 | 6.1 | 0.00 | 0.00 | 0.00 | 83 | 1014.9 |
| 20260504024027 | 38 | 302 | 2.6 | 5.2 | 0.00 | 0.00 | 0.00 | 83 | 1014.9 |
| 20260504023032 | 38 | 304 | 3.5 | 7.0 | 0.00 | 0.00 | 0.00 | 83 | 1014.8 |
| 20260504022020 | 38 | 292 | 3.5 | 6.1 | 0.00 | 0.00 | 0.00 | 83 | 1015.0 |
| 20260504021025 | 38 | 288 | 2.6 | 6.1 | 0.00 | 0.00 | 0.00 | 83 | 1015.1 |
| 20260504020029 | 39 | 290 | 3.5 | 7.0 | 0.00 | 0.00 | 0.00 | 82 | 1015.1 |
| 20260504015018 | 39 | 296 | 3.5 | 7.0 | 0.00 | 0.00 | 0.00 | 82 | 1015.3 |
| 20260504014023 | 39 | 307 | 3.5 | 6.1 | 0.00 | 0.00 | 0.00 | 81 | 1015.3 |
| 20260504013028 | 39 | 302 | 3.5 | 6.1 | 0.00 | 0.00 | 0.00 | 81 | 1015.5 |
| 20260504012015 | 39 | 300 | 3.5 | 7.0 | 0.00 | 0.00 | 0.00 | 82 | 1015.5 |
| 20260504011020 | 39 | 300 | 2.6 | 5.2 | 0.00 | 0.00 | 0.00 | 82 | 1015.7 |
| 20260504010025 | 39 | 296 | 1.7 | 3.5 | 0.00 | 0.00 | 0.00 | 82 | 1015.7 |
| 20260504005030 | 39 | 302 | 0.9 | 2.6 | 0.00 | 0.00 | 0.00 | 81 | 1015.8 |
| 20260504004018 | 39 | 302 | 0.0 | 1.7 | 0.00 | 0.00 | 0.00 | 80 | 1015.8 |
| 20260504003023 | 39 | 302 | 1.7 | 2.6 | 0.00 | 0.00 | 0.00 | 79 | 1015.9 |
| 20260504002028 | 39 | 302 | 0.9 | 3.5 | 0.00 | 0.00 | 0.00 | 79 | 1016.1 |
| 20260504001016 | 39 | 303 | 1.7 | 5.2 | 0.00 | 0.00 | 0.00 | 78 | 1016.1 |
| 20260504000021 | 39 | 305 | 0.9 | 3.5 | 0.00 | 0.00 | 0.00 | 78 | 1016.2 |
| 20260503235026 | 39 | 303 | 2.6 | 3.5 | 0.00 | 0.00 | 0.00 | 78 | 1016.2 |
| 20260503234031 | 39 | 307 | 0.9 | 3.5 | 0.00 | 0.00 | 0.00 | 79 | 1016.2 |
| 20260503233019 | 39 | 309 | 1.7 | 3.5 | 0.00 | 0.00 | 0.00 | 79 | 1016.3 |
| 20260503232024 | 39 | 305 | 2.6 | 7.0 | 0.00 | 0.00 | 0.00 | 79 | 1016.4 |
| 20260503231029 | 39 | 308 | 1.7 | 3.5 | 0.00 | 0.00 | 0.00 | 79 | 1016.5 |
| 20260503230017 | 39 | 304 | 2.6 | 5.2 | 0.00 | 0.00 | 0.00 | 80 | 1016.7 |
| 20260503225022 | 38 | 305 | 2.6 | 3.5 | 0.00 | 0.00 | 0.00 | 80 | 1016.8 |
| 20260503224027 | 38 | 305 | 1.7 | 3.5 | 0.00 | 0.00 | 0.00 | 80 | 1016.8 |
| 20260503223032 | 38 | 305 | 0.9 | 2.6 | 0.00 | 0.00 | 0.00 | 81 | 1016.8 |
| 20260503222020 | 39 | 305 | 0.9 | 3.5 | 0.00 | 0.00 | 0.00 | 80 | 1016.7 |
| 20260503221025 | 38 | 319 | 2.6 | 3.5 | 0.00 | 0.00 | 0.00 | 81 | 1016.7 |
| 20260503220030 | 38 | 27 | 0.0 | 2.6 | 0.00 | 0.00 | 0.00 | 82 | 1016.8 |
| 20260503215018 | 38 | 28 | 0.9 | 2.6 | 0.00 | 0.00 | 0.00 | 82 | 1016.8 |
| 20260503214023 | 38 | 28 | 0.0 | 0.0 | 0.00 | 0.00 | 0.00 | 81 | 1016.8 |
| 20260503213028 | 38 | 28 | 0.0 | 0.0 | 0.00 | 0.00 | 0.00 | 81 | 1016.9 |
| 20260503212016 | 39 | 28 | 0.0 | 0.0 | 0.00 | 0.00 | 0.00 | 80 | 1016.8 |
| 20260503211021 | 39 | 28 | 0.0 | 0.0 | 0.00 | 0.00 | 0.00 | 80 | 1016.9 |
| 20260503210026 | 39 | 28 | 0.0 | 0.0 | 0.00 | 0.00 | 0.00 | 81 | 1016.8 |
| 20260503205031 | 39 | 28 | 0.9 | 2.6 | 0.00 | 0.00 | 0.00 | 81 | 1017.0 |
| 20260503204019 | 39 | 28 | 0.9 | 2.6 | 0.00 | 0.00 | 0.00 | 80 | 1017.1 |
| 20260503203023 | 39 | 28 | 0.9 | 1.7 | 0.00 | 0.00 | 0.00 | 79 | 1017.2 |
| 20260503202028 | 40 | 28 | 0.0 | 0.0 | 0.00 | 0.00 | 0.00 | 79 | 1017.1 |
| 20260503201037 | 40 | 28 | 0.0 | 0.0 | 0.00 | 0.00 | 0.00 | 79 | 1017.3 |
| 20260503192024 | 41 | 51 | 0.0 | 0.0 | 0.00 | 0.00 | 0.00 | 76 | 1017.8 |
| 20260503191029 | 41 | 51 | 0.0 | 0.0 | 0.00 | 0.00 | 0.00 | 76 | 1018.0 |
| 20260503190017 | 42 | 51 | 0.0 | 0.0 | 0.00 | 0.00 | 0.00 | 75 | 1018.1 |
| 20260503185022 | 42 | 51 | 0.0 | 0.0 | 0.00 | 0.00 | 0.00 | 74 | 1018.2 |
| 20260503184048 | 43 | 51 | 0.0 | 0.0 | 0.00 | 0.00 | 0.00 | 73 | 1018.2 |
| 20260503175018 | 45 | 51 | 0.0 | 0.0 | 0.00 | 0.00 | 0.00 | 68 | 1018.1 |
| 20260503174023 | 46 | 51 | 0.0 | 2.6 | 0.00 | 0.00 | 0.00 | 67 | 1018.2 |
| 20260503173028 | 46 | 46 | 2.6 | 3.5 | 0.00 | 0.00 | 0.00 | 67 | 1018.2 |
| 20260503172016 | 47 | 47 | 2.6 | 5.2 | 0.00 | 0.00 | 0.00 | 66 | 1018.1 |
| 20260503171021 | 48 | 42 | 2.6 | 5.2 | 0.00 | 0.00 | 0.00 | 64 | 1018.0 |
| 20260503131022 | 56 | 44 | 8.7 | 15.6 | 0.00 | 0.00 | 0.00 | 49 | 1018.6 |
| 20260503081017 | 51 | 29 | 7.8 | 14.8 | 0.00 | 0.00 | 0.00 | 70 | 1020.5 |
| 20260503072025 | 51 | 18 | 7.0 | 13.9 | 0.00 | 0.00 | 0.00 | 75 | 1020.4 |
| 20260503071030 | 51 | 19 | 6.1 | 14.8 | 0.00 | 0.00 | 0.00 | 75 | 1020.3 |
| 20260503055021 | 48 | 12 | 7.0 | 14.8 | 0.00 | 0.00 | 0.00 | 79 | 1020.1 |
| 20260503054024 | 47 | 10 | 5.2 | 9.6 | 0.00 | 0.00 | 0.00 | 79 | 1020.1 |
| 20260503053029 | 47 | 350 | 6.1 | 11.3 | 0.00 | 0.00 | 0.00 | 78 | 1020.0 |
| 20260503052017 | 47 | 4 | 6.1 | 11.3 | 0.00 | 0.00 | 0.00 | 79 | 1019.9 |